Flag for Germany Weather past 2 weeks in Stassfurt, Saxony-Anhalt, Germany

Now
41 °F

Scattered clouds.


Feels Like: 37 °F
Forecast: 36 / 44 °F
Wind: 6 mph from West

Location: Magdeburg

Current Time: Mar 2, 2015 at 8:29:22 AM

Latest Report: Mar 2, 2015 at 8:00 AM


Visibility: 38 mi

Pressure: 29.47 "Hg

Humidity: 70%

Dew point: 32 °F

Location of StassfurtLocation

Historic Weather in Stassfurt — Graph

°F

Stassfurt temperature yesterday

Maximum temperature yesterday: 47 °F (at 2:00 PM)
Minimum temperature yesterday: 34 °F (at 3:00 AM)
Average temperature yesterday: 40 °F

Past Weeks' High & Low Weather Summary

 TemperatureHumidityPressure
High49 °F (Feb 20, 4:00 PM)98% (Feb 18, 6:00 AM)30.76 "Hg (Feb 18, 6:00 AM)
Low25 °F (Feb 17, 8:00 AM)49% (Feb 26, 5:00 PM)29.38 "Hg (Feb 21, 11:00 AM)
Average37 °F80%29.98 "Hg
* Reported Feb 15 7:00 AM — Mar 2 7:00 AM, Stassfurt, Weather by CustomWeather, © 2015

Note: Actual official high and low records may vary slightly from our data, if they occured in-between our weather recording intervals... More about our weather records

Advertising

Stassfurt weather history for previous 24 hours

 ConditionsComfort  
Time TempWeatherWind HumidityBarometerVisibility
7:00 AM
Mon, Mar 2
41 °FPartly sunny.7 mph77%29.41 "Hg37 mi
6:00 AM43 °FOvercast.6 mph77%29.41 "Hg37 mi
5:00 AM44 °FDrizzle. Overcast.5 mph83%29.38 "Hg15 mi
3:00 AM41 °FOvercast.3 mph85%29.44 "Hg28 mi
2:00 AM41 °FOvercast.3 mph83%29.50 "Hg31 mi
1:00 AM40 °FOvercast.2 mph88%29.55 "Hg19 mi
12:00 AM40 °FOvercast.2 mph87%29.58 "Hg19 mi
11:00 PM
Sun, Mar 1
42 °FOvercast.3 mph83%29.58 "Hg28 mi
9:00 PM42 °FOvercast.2 mph79%29.61 "Hg37 mi
8:00 PM44 °FOvercast.8 mph76%29.62 "Hg28 mi
7:00 PM45 °FOvercast.3 mph80%29.59 "Hg25 mi
6:00 PM44 °FPassing clouds.2 mph89%29.59 "Hg19 mi
5:00 PM47 °FOvercast.5 mph79%29.59 "Hg25 mi
3:00 PM47 °FSprinkles. Overcast.6 mph77%29.58 "Hg25 mi
2:00 PM47 °FOvercast.7 mph74%29.58 "Hg31 mi
1:00 PM45 °FOvercast.7 mph77%29.60 "Hg28 mi
12:00 PM44 °FOvercast.7 mph79%29.61 "Hg19 mi
11:00 AM40 °FOvercast.7 mph87%29.61 "Hg9 mi
10:00 AM38 °FOvercast.8 mph90%29.62 "Hg6 mi
9:00 AM37 °FLight rain. Overcast.6 mph88%29.64 "Hg4 mi
8:00 AM36 °FLight rain. Overcast.6 mph87%29.66 "Hg5 mi
Weather by CustomWeather, © 2015

See weather overviewHow to use our weather pages